Location: Follega
(52.8850°N, 5.7362°E)
Time: 21:51:37
(UTC+00:00)

CARTOSAT-1 - Pass Details

Date: 01 October 2020
Orbit: 616 x 619 km, 97.8° (Epoch: 22 October)

Event Time Altitude Azimuth Distance (km) Brightness Sun altitude
Exits shadow 19:16:50 13° 42° (NE) 1,824 5.7 -19.2°
Drops below altitude 10° 19:18:05 10° 26° (NNE) 1,994 6.1 -19.4°
Sets 19:21:21 0° 359° (N) 2,904 7.3 -19.8°
